Regional Weather Roundup
Issued by NWS

Home | Current Version | Previous Version | Graphics & Text | Print | Product List | Glossary On
Versions: 1 2 3 4 5 6 7 8 9 10 11 12 13 14 15 16 17 18 19 20 21 22 23 24 25 26 27 28 29 30 31 32 33 34 35 36 37 38 39 40 41 42 43 44 45 46 47 48 49 50
000
ASUS43 KTOP 310308
RWRKS

WEATHER ROUNDUP FOR KANSAS
NATIONAL WEATHER SERVICE GOODLAND KS
1000 PM CDT THU OCT 30 2014

NOTE:  "FAIR" INDICATES FEW OR NO CLOUDS BELOW 12,000 FEET WITH NO
SIGNIFICANT WEATHER AND/OR OBSTRUCTIONS TO VISIBILITY.

KSZ001>006-013>018-027>032-041>047-310400-
NORTHWEST KANSAS

CITY           SKY/WX    TMP DP  RH WIND       PRES   REMARKS
GOODLAND       CLEAR     43  29  57 NE10      30.39R
HAYS           CLEAR     52  30  43 N13       30.32R
HILL CITY      CLEAR     51  32  48 N16       30.36R
RUSSELL        CLEAR     52  34  50 N17       30.31R
$$

KSZ061>065-074>080-084>089-310400-
SOUTHWEST KANSAS

CITY           SKY/WX    TMP DP  RH WIND       PRES   REMARKS
DODGE CITY     CLEAR     44  30  57 N8        30.32R
ELKHART          N/A     52  27  38 NE6         N/A
GARDEN CITY    CLEAR     45  30  55 N12       30.32R
GREAT BEND     CLEAR     54  32  43 N16       30.30R
LIBERAL        CLEAR     46  27  46 N7        30.33R
PRATT          CLEAR     46  32  57 N9        30.29R
$$

KSZ066>073-081>083-090>101-310400-
SOUTHEAST KANSAS

CITY           SKY/WX    TMP DP  RH WIND       PRES   REMARKS
CHANUTE        CLEAR     55  40  56 N7        30.16R
COFFEYVILLE    CLEAR     56  38  50 NW6       30.15R
HUTCHINSON     CLEAR     57  33  40 N14       30.26R
MEDICINE LODGE   N/A     52  35  52 N8        30.26R
NEWTON         CLEAR     54  32  43 N14       30.26R
PARSONS        CLEAR     50  40  68 N7        30.17R
WICHITA INTL   CLEAR     58  34  40 N13       30.23R
WICHITA JABRA  CLEAR     56  35  45 N14       30.23R
WICHITA MCCONL CLEAR     57  33  39 N13       30.23R
WINFIELD       CLEAR     53  37  54 N10       30.21R
$$

KSZ007>012-019>026-033>040-048>060-102>105-310400-
NORTHEAST KANSAS

CITY           SKY/WX    TMP DP  RH WIND       PRES   REMARKS
CONCORDIA      CLEAR     47  37  68 N24G32    30.33R
EMPORIA        CLEAR     54  39  57 N13       30.21R
LAWRENCE       CLEAR     54  40  59 N16       30.18R
MANHATTAN      CLEAR     54  38  54 N9        30.26R
MARYSVILLE     CLEAR     45  37  76 N14       30.29R
OLATHE IND     CLEAR     54  41  61 NW18      30.16R
OLATHE EXE     CLEAR     55  41  59 N14G20    30.14R
SALINA         CLEAR     53  37  54 N15       30.29R
TOPEKA BILLARD CLEAR     54  40  59 N15G22    30.21R
TOPEKA FORBES  CLEAR     55  39  54 N18G29    30.19R
$$



USA.gov is the U.S. government's official web portal to all federal, state and local government web resources and services.